Hourly Data Report for September 20, 2017

All times are specified in Local Standard Time (LST). Add 1 hour to adjust for Daylight Saving Time where and when it is observed.

HALL BEACH A
NUNAVUT

68°46'33.000" N
81°14'33.000" W
9.10 m
2402354
71293
YUX

Download Data

Hourly Data (September 2017)
Hourly Data Report for September 20, 2017
Temp Definition
°C
Dew Point Temp Definition
°C
Rel Hum Definition
%
Wind Dir Definition
10's deg

Wind Spd Definition
km/h
Visibility Definition
km
Stn Press Definition
kPa
Hmdx Definition


Wind Chill Definition


Weather Definition


TIME
00:00 Legend Double Dagger 1.0 -0.2 92 2 26 16.1 101.95     LegendNANA
01:00 Legend Double Dagger 0.5 -0.8 91 2 30 16.1 101.99     LegendNANA
02:00 Legend Double Dagger 0.3 -1.0 91 2 26 16.1 102.04     LegendNANA
03:00 Legend Double Dagger 0.4 -1.1 90 3 28 16.1 102.11     LegendNANA
04:00 Legend Double Dagger 0.4 -1.4 88 3 26 16.1 102.17     LegendNANA
05:00 Legend Double Dagger 0.1 -1.4 90 2 24 16.1 102.23     LegendNANA
06:00 Legend Double Dagger 0.0 -1.5 90 2 26 16.1 102.25   -6 LegendNANA
07:00 Legend Double Dagger 0.1 -1.5 89 2 26 16.1 102.30     LegendNANA
08:00 Legend Double Dagger 0.6 -1.0 89 2 24 16.1 102.35     LegendNANA
09:00 Legend Double Dagger 0.9 -1.0 87 2 24 16.1 102.39     LegendNANA
10:00 Legend Double Dagger 0.5 -1.4 87 2 24 16.1 102.40     LegendNANA
11:00 Legend Double Dagger 1.2 -1.3 84 1 24 16.1 102.43     LegendNANA
12:00 Legend Double Dagger 1.5 -1.2 82 1 26 16.1 102.48     LegendNANA
13:00 Legend Double Dagger 1.6 -1.4 81 1 22 16.1 102.53     LegendNANA
14:00 Legend Double Dagger 1.5 -1.5 80 2 24 16.1 102.53     LegendNANA
15:00 Legend Double Dagger 1.4 -2.1 78 2 22 16.1 102.54     LegendNANA
16:00 Legend Double Dagger 1.2 -1.8 81 2 24 16.1 102.54     LegendNANA
17:00 Legend Double Dagger 0.9 -2.1 81 1 21 16.1 102.54     LegendNANA
18:00 Legend Double Dagger 0.4 -2.6 80 1 17 16.1 102.59     LegendNANA
19:00 Legend Double Dagger -0.1 -3.0 81 36 15 16.1 102.61   -5 LegendNANA
20:00 Legend Double Dagger -0.6 -2.5 87 35 11 16.1 102.60   -4 LegendNANA
21:00 Legend Double Dagger -0.4 -2.8 84 36 15 16.1 102.61   -5 LegendNANA
22:00 Legend Double Dagger -0.5 -2.6 86 36 17 16.1 102.60   -5 LegendNANA
23:00 Legend Double Dagger -1.7 -3.1 90 35 13 16.1 102.58   -6 LegendNANA

Notes on Data Quality.

Legend

  • E = Estimated
  • M = Missing
  • NA = Not Available
  • ‡ = Partner data that is not subject to review by the National Climate Archives
Date modified: